Time,TemperatureF,DewpointF,PressureIn,WindDirection,WindDirectionDegrees,WindSpeedMPH,WindSpeedGustMPH,Humidity,HourlyPrecipIn,Conditions,Clouds,dailyrainin,SolarRadiationWatts/m^2,SoftwareType,DateUTC
2013-02-10 00:21:00,28.0,15.0,-100.00,North,351,9.0,19.0,58,0.00,,,0.00,0.000000,,2013-02-10 07:21:00,
2013-02-10 00:31:00,28.0,15.0,-100.00,North,351,9.0,19.0,58,0.00,,,0.00,0.000000,,2013-02-10 07:31:00,
2013-02-10 00:41:00,28.0,15.0,-100.00,North,351,9.0,19.0,58,0.00,,,0.00,0.000000,,2013-02-10 07:41:00,
2013-02-10 00:51:00,28.0,15.0,-100.00,North,351,9.0,19.0,58,0.00,,,0.00,0.000000,,2013-02-10 07:51:00,
2013-02-10 01:21:00,28.0,14.0,-100.00,North,2,6.0,22.0,56,0.00,,,0.00,0.000000,,2013-02-10 08:21:00,
2013-02-10 01:32:00,28.0,14.0,-100.00,North,2,6.0,22.0,56,0.00,,,0.00,0.000000,,2013-02-10 08:32:00,
2013-02-10 01:43:00,28.0,14.0,-100.00,North,2,6.0,22.0,56,0.00,,,0.00,0.000000,,2013-02-10 08:43:00,
2013-02-10 01:52:00,28.0,14.0,-100.00,North,2,6.0,22.0,56,0.00,,,0.00,0.000000,,2013-02-10 08:52:00,
2013-02-10 02:21:00,28.0,17.0,-100.00,North,354,8.0,16.0,62,0.00,,,0.00,0.000000,,2013-02-10 09:21:00,
2013-02-10 02:32:00,28.0,17.0,-100.00,North,354,8.0,16.0,62,0.00,,,0.00,0.000000,,2013-02-10 09:32:00,
2013-02-10 02:41:00,28.0,17.0,-100.00,North,354,8.0,16.0,62,0.00,,,0.00,0.000000,,2013-02-10 09:41:00,
2013-02-10 02:51:00,28.0,17.0,-100.00,North,354,8.0,16.0,62,0.00,,,0.00,0.000000,,2013-02-10 09:51:00,
2013-02-10 03:21:00,28.0,16.0,-100.00,NW,317,4.0,17.0,60,0.00,,,0.00,0.000000,,2013-02-10 10:21:00,
2013-02-10 03:31:00,28.0,16.0,-100.00,NW,317,4.0,17.0,60,0.00,,,0.00,0.000000,,2013-02-10 10:31:00,
2013-02-10 03:42:00,28.0,16.0,-100.00,NW,317,4.0,17.0,60,0.00,,,0.00,0.000000,,2013-02-10 10:42:00,
2013-02-10 03:51:00,28.0,16.0,-100.00,NW,317,4.0,17.0,60,0.00,,,0.00,0.000000,,2013-02-10 10:51:00,
2013-02-10 04:22:00,29.0,15.0,-100.00,North,351,7.0,14.0,55,0.00,,,0.00,0.000000,,2013-02-10 11:22:00,
2013-02-10 04:32:00,29.0,15.0,-100.00,North,351,7.0,14.0,55,0.00,,,0.00,0.000000,,2013-02-10 11:32:00,
2013-02-10 04:42:00,29.0,15.0,-100.00,North,351,7.0,14.0,55,0.00,,,0.00,0.000000,,2013-02-10 11:42:00,
2013-02-10 04:52:00,29.0,15.0,-100.00,North,351,7.0,14.0,55,0.00,,,0.00,0.000000,,2013-02-10 11:52:00,
2013-02-10 08:22:00,28.0,19.0,-100.00,NW,304,5.0,13.0,69,-99.99,,,0.00,31.000000,,2013-02-10 15:22:00,
2013-02-10 08:32:00,28.0,19.0,-100.00,NW,304,5.0,13.0,69,-99.99,,,0.00,31.000000,,2013-02-10 15:32:00,
2013-02-10 08:42:00,28.0,19.0,-100.00,NW,304,5.0,13.0,69,-99.99,,,0.00,31.000000,,2013-02-10 15:42:00,
2013-02-10 08:51:00,28.0,19.0,-100.00,NW,304,5.0,13.0,69,-99.99,,,0.00,31.000000,,2013-02-10 15:51:00,
2013-02-10 09:22:00,28.0,21.0,-100.00,NW,306,7.0,17.0,75,0.00,,,0.00,95.000000,,2013-02-10 16:22:00,
2013-02-10 09:32:00,28.0,21.0,-100.00,NW,306,7.0,17.0,75,0.00,,,0.00,95.000000,,2013-02-10 16:32:00,
2013-02-10 09:42:00,28.0,21.0,-100.00,NW,306,7.0,17.0,75,0.00,,,0.00,95.000000,,2013-02-10 16:42:00,
2013-02-10 09:52:00,28.0,21.0,-100.00,NW,306,7.0,17.0,75,0.00,,,0.00,95.000000,,2013-02-10 16:52:00,
2013-02-10 10:22:00,29.0,20.0,-100.00,NW,321,9.0,22.0,69,0.00,,,0.00,200.000000,,2013-02-10 17:22:00,
2013-02-10 10:32:00,29.0,20.0,-100.00,NW,321,9.0,22.0,69,0.00,,,0.00,200.000000,,2013-02-10 17:32:00,
2013-02-10 10:42:00,29.0,20.0,-100.00,NW,321,9.0,22.0,69,0.00,,,0.00,200.000000,,2013-02-10 17:42:00,
2013-02-10 10:52:00,29.0,20.0,-100.00,NW,321,9.0,22.0,69,0.00,,,0.00,200.000000,,2013-02-10 17:52:00,
2013-02-10 11:22:00,30.0,17.0,-100.00,NW,321,11.0,24.0,59,0.00,,,0.00,240.000000,,2013-02-10 18:22:00,
2013-02-10 11:32:00,30.0,17.0,-100.00,NW,321,11.0,24.0,59,0.00,,,0.00,240.000000,,2013-02-10 18:32:00,
2013-02-10 11:42:00,30.0,17.0,-100.00,NW,321,11.0,24.0,59,0.00,,,0.00,240.000000,,2013-02-10 18:42:00,
2013-02-10 11:52:00,30.0,17.0,-100.00,NW,321,11.0,24.0,59,0.00,,,0.00,240.000000,,2013-02-10 18:52:00,
2013-02-10 12:22:00,30.0,15.0,-100.00,NW,326,10.0,26.0,52,0.00,,,0.00,311.000000,,2013-02-10 19:22:00,
2013-02-10 12:32:00,30.0,15.0,-100.00,NW,326,10.0,26.0,52,0.00,,,0.00,311.000000,,2013-02-10 19:32:00,
2013-02-10 12:42:00,30.0,15.0,-100.00,NW,326,10.0,26.0,52,0.00,,,0.00,311.000000,,2013-02-10 19:42:00,
2013-02-10 12:52:00,30.0,15.0,-100.00,NW,326,10.0,26.0,52,0.00,,,0.00,311.000000,,2013-02-10 19:52:00,
2013-02-10 13:22:00,30.0,14.0,-100.00,NNW,331,13.0,31.0,50,0.00,,,0.00,325.000000,,2013-02-10 20:22:00,
2013-02-10 13:32:00,30.0,14.0,-100.00,NNW,331,13.0,31.0,50,0.00,,,0.00,325.000000,,2013-02-10 20:32:00,
2013-02-10 13:42:00,30.0,14.0,-100.00,NNW,331,13.0,31.0,50,0.00,,,0.00,325.000000,,2013-02-10 20:42:00,
2013-02-10 13:52:00,30.0,14.0,-100.00,NNW,331,13.0,31.0,50,0.00,,,0.00,325.000000,,2013-02-10 20:52:00,
2013-02-10 14:22:00,30.0,15.0,-100.00,NW,320,11.0,27.0,53,0.00,,,0.00,302.000000,,2013-02-10 21:22:00,
2013-02-10 14:32:00,30.0,15.0,-100.00,NW,320,11.0,27.0,53,0.00,,,0.00,302.000000,,2013-02-10 21:32:00,
2013-02-10 14:42:00,30.0,15.0,-100.00,NW,320,11.0,27.0,53,0.00,,,0.00,302.000000,,2013-02-10 21:42:00,
2013-02-10 14:52:00,30.0,15.0,-100.00,NW,320,11.0,27.0,53,0.00,,,0.00,302.000000,,2013-02-10 21:52:00,
2013-02-10 15:22:00,31.0,15.0,-100.00,NW,318,10.0,26.0,52,0.00,,,0.00,207.000000,,2013-02-10 22:22:00,
2013-02-10 15:32:00,31.0,15.0,-100.00,NW,318,10.0,26.0,52,0.00,,,0.00,207.000000,,2013-02-10 22:32:00,
2013-02-10 15:42:00,31.0,15.0,-100.00,NW,318,10.0,26.0,52,0.00,,,0.00,207.000000,,2013-02-10 22:42:00,
2013-02-10 15:52:00,31.0,15.0,-100.00,NW,318,10.0,26.0,52,0.00,,,0.00,207.000000,,2013-02-10 22:52:00,
2013-02-10 16:22:00,28.0,13.0,-100.00,NW,306,12.0,29.0,53,0.00,,,0.00,124.000000,,2013-02-10 23:22:00,
2013-02-10 16:32:00,28.0,13.0,-100.00,NW,306,12.0,29.0,53,0.00,,,0.00,124.000000,,2013-02-10 23:32:00,
2013-02-10 16:42:00,28.0,13.0,-100.00,NW,306,12.0,29.0,53,0.00,,,0.00,124.000000,,2013-02-10 23:42:00,
2013-02-10 16:52:00,28.0,13.0,-100.00,NW,306,12.0,29.0,53,0.00,,,0.00,124.000000,,2013-02-10 23:52:00,
2013-02-10 17:22:00,25.0,13.0,-100.00,NW,307,10.0,26.0,60,0.00,,,0.00,58.000000,,2013-02-11 00:22:00,
2013-02-10 17:32:00,25.0,13.0,-100.00,NW,307,10.0,26.0,60,0.00,,,0.00,58.000000,,2013-02-11 00:32:00,
2013-02-10 17:42:00,25.0,13.0,-100.00,NW,307,10.0,26.0,60,0.00,,,0.00,58.000000,,2013-02-11 00:42:00,
2013-02-10 17:51:00,25.0,13.0,-100.00,NW,307,10.0,26.0,60,0.00,,,0.00,58.000000,,2013-02-11 00:51:00,
2013-02-10 18:21:00,22.0,13.0,-100.00,WNW,301,8.0,20.0,69,0.00,,,0.00,8.000000,,2013-02-11 01:21:00,
2013-02-10 18:32:00,22.0,13.0,-100.00,WNW,301,8.0,20.0,69,0.00,,,0.00,8.000000,,2013-02-11 01:32:00,
2013-02-10 18:42:00,22.0,13.0,-100.00,WNW,301,8.0,20.0,69,0.00,,,0.00,8.000000,,2013-02-11 01:42:00,
2013-02-10 18:52:00,22.0,13.0,-100.00,WNW,301,8.0,20.0,69,0.00,,,0.00,8.000000,,2013-02-11 01:52:00,
2013-02-10 19:21:00,21.0,9.0,-100.00,NW,314,8.0,21.0,58,0.00,,,0.00,0.000000,,2013-02-11 02:21:00,
2013-02-10 19:32:00,21.0,9.0,-100.00,NW,314,8.0,21.0,58,0.00,,,0.00,0.000000,,2013-02-11 02:32:00,
2013-02-10 19:42:00,21.0,9.0,-100.00,NW,314,8.0,21.0,58,0.00,,,0.00,0.000000,,2013-02-11 02:42:00,
2013-02-10 19:52:00,21.0,9.0,-100.00,NW,314,8.0,21.0,58,0.00,,,0.00,0.000000,,2013-02-11 02:52:00,
2013-02-10 20:21:00,20.0,11.0,-100.00,WNW,290,7.0,16.0,68,0.00,,,0.00,0.000000,,2013-02-11 03:21:00,
2013-02-10 20:32:00,20.0,11.0,-100.00,WNW,290,7.0,16.0,68,0.00,,,0.00,0.000000,,2013-02-11 03:32:00,
2013-02-10 20:42:00,20.0,11.0,-100.00,WNW,290,7.0,16.0,68,0.00,,,0.00,0.000000,,2013-02-11 03:42:00,
2013-02-10 20:52:00,20.0,11.0,-100.00,WNW,290,7.0,16.0,68,0.00,,,0.00,0.000000,,2013-02-11 03:52:00,
2013-02-10 21:21:00,19.0,11.0,-100.00,WNW,293,7.0,18.0,72,0.00,,,0.00,0.000000,,2013-02-11 04:21:00,
2013-02-10 21:32:00,19.0,11.0,-100.00,WNW,293,7.0,18.0,72,0.00,,,0.00,0.000000,,2013-02-11 04:32:00,
2013-02-10 21:42:00,19.0,11.0,-100.00,WNW,293,7.0,18.0,72,0.00,,,0.00,0.000000,,2013-02-11 04:42:00,
2013-02-10 21:51:00,19.0,11.0,-100.00,WNW,293,7.0,18.0,72,0.00,,,0.00,0.000000,,2013-02-11 04:51:00,
2013-02-10 22:22:00,17.0,10.0,-100.00,NW,305,8.0,15.0,74,0.00,,,0.00,0.000000,,2013-02-11 05:22:00,
2013-02-10 22:32:00,17.0,10.0,-100.00,NW,305,8.0,15.0,74,0.00,,,0.00,0.000000,,2013-02-11 05:32:00,
2013-02-10 22:42:00,17.0,10.0,-100.00,NW,305,8.0,15.0,74,0.00,,,0.00,0.000000,,2013-02-11 05:42:00,
2013-02-10 22:52:00,17.0,10.0,-100.00,NW,305,8.0,15.0,74,0.00,,,0.00,0.000000,,2013-02-11 05:52:00,
2013-02-10 23:21:00,17.0,8.0,-100.00,NW,309,9.0,21.0,68,0.00,,,0.00,0.000000,,2013-02-11 06:21:00,
2013-02-10 23:32:00,17.0,8.0,-100.00,NW,309,9.0,21.0,68,0.00,,,0.00,0.000000,,2013-02-11 06:32:00,
2013-02-10 23:42:00,17.0,8.0,-100.00,NW,309,9.0,21.0,68,0.00,,,0.00,0.000000,,2013-02-11 06:42:00,
2013-02-10 23:51:00,17.0,8.0,-100.00,NW,309,9.0,21.0,68,0.00,,,0.00,0.000000,,2013-02-11 06:51:00,